AVA32 SKBO-MROC

Flight info

Callsign AVA32
Flight time 1h 25m
Altitude 34000
Route URODU UL423 ISEBA CUARE3I
Aircraft A346/H-SDE2E3FGHIJ3J4J5M1RWXY/LB1D1

Departure

Time 2026-05-08 05:53
Airport El Dorado International Airport (SKBO)

Arrival

Time 2026-05-08 07:18
Airport Juan Santamaría International Airport (MROC)
Time Latitude Longitude Altitude Speed Heading
2026-05-08 05:32 4.69727 -74.13731 8380 ft 0 kts 224°
2026-05-08 05:39 4.69735 -74.13724 8380 ft 2 kts 213°
2026-05-08 05:39 4.69749 -74.13718 8380 ft 2 kts 191°
2026-05-08 05:39 4.69763 -74.13716 8379 ft 2 kts 174°
2026-05-08 05:39 4.69778 -74.13720 8379 ft 2 kts 157°
2026-05-08 05:40 4.69791 -74.13727 8379 ft 2 kts 140°
2026-05-08 05:40 4.69801 -74.13738 8379 ft 2 kts 124°
2026-05-08 05:40 4.69810 -74.13751 8379 ft 2 kts 124°
2026-05-08 05:40 4.69815 -74.13757 8379 ft 0 kts 126°
2026-05-08 05:43 4.69811 -74.13753 8379 ft 1 kts 126°
2026-05-08 05:43 4.69798 -74.13735 8379 ft 4 kts 126°
2026-05-08 05:44 4.69774 -74.13700 8379 ft 7 kts 123°
2026-05-08 05:44 4.69769 -74.13648 8378 ft 9 kts 71°
2026-05-08 05:44 4.69772 -74.13579 8377 ft 11 kts 118°
2026-05-08 05:44 4.69722 -74.13513 8377 ft 12 kts 128°
2026-05-08 05:45 4.69669 -74.13445 8377 ft 12 kts 127°
2026-05-08 05:45 4.69616 -74.13376 8378 ft 12 kts 127°
2026-05-08 05:45 4.69562 -74.13304 8378 ft 13 kts 127°
2026-05-08 05:45 4.69505 -74.13229 8378 ft 13 kts 127°
2026-05-08 05:46 4.69449 -74.13155 8379 ft 13 kts 127°
2026-05-08 05:46 4.69392 -74.13079 8378 ft 14 kts 127°
2026-05-08 05:46 4.69334 -74.12998 8378 ft 13 kts 116°
2026-05-08 05:46 4.69327 -74.12902 8378 ft 13 kts 98°
2026-05-08 05:47 4.69283 -74.12820 8379 ft 13 kts 126°
2026-05-08 05:47 4.69228 -74.12746 8380 ft 12 kts 127°
2026-05-08 05:47 4.69175 -74.12676 8381 ft 10 kts 127°
2026-05-08 05:47 4.69139 -74.12611 8381 ft 11 kts 102°
2026-05-08 05:48 4.69148 -74.12554 8380 ft 0 kts 58°
2026-05-08 05:51 4.69150 -74.12552 8380 ft 1 kts 58°
2026-05-08 05:51 4.69172 -74.12530 8380 ft 6 kts 33°
2026-05-08 05:51 4.69225 -74.12508 8379 ft 9 kts 17°
2026-05-08 05:51 4.69291 -74.12516 8379 ft 10 kts 328°
2026-05-08 05:52 4.69400 -74.12636 8378 ft 51 kts 309°
2026-05-08 05:52 4.69761 -74.13114 8375 ft 118 kts 308°
2026-05-08 05:52 4.70379 -74.13936 8377 ft 174 kts 308°
2026-05-08 05:52 4.71202 -74.15027 8466 ft 212 kts 307°
2026-05-08 05:53 4.72102 -74.16227 9043 ft 215 kts 308°
2026-05-08 05:53 4.73010 -74.17409 9701 ft 219 kts 308°
2026-05-08 05:53 4.73869 -74.18662 10337 ft 224 kts 301°
2026-05-08 05:53 4.74617 -74.20083 10710 ft 237 kts 295°
2026-05-08 05:54 4.75338 -74.21635 10934 ft 254 kts 298°
2026-05-08 05:54 4.76179 -74.23256 11210 ft 271 kts 298°
2026-05-08 05:54 4.77090 -74.24983 11505 ft 288 kts 298°
2026-05-08 05:54 4.78054 -74.26795 11783 ft 305 kts 298°
2026-05-08 05:55 4.79086 -74.28731 12103 ft 320 kts 299°
2026-05-08 05:55 4.80163 -74.30746 12357 ft 337 kts 299°
2026-05-08 05:55 4.81296 -74.32867 12612 ft 354 kts 299°
2026-05-08 05:55 4.82347 -74.34832 12824 ft 369 kts 299°
2026-05-08 05:56 4.82672 -74.35440 12889 ft 373 kts 299°
2026-05-08 05:56 4.83914 -74.37762 13235 ft 386 kts 299°
2026-05-08 05:56 4.85184 -74.40140 13787 ft 391 kts 299°
2026-05-08 05:56 4.86486 -74.42574 14441 ft 393 kts 299°
2026-05-08 05:57 4.87766 -74.44965 15033 ft 395 kts 299°
2026-05-08 05:57 4.89068 -74.47400 15620 ft 399 kts 298°
2026-05-08 05:57 4.90384 -74.49862 16210 ft 402 kts 298°
2026-05-08 05:57 4.91719 -74.52361 16779 ft 406 kts 298°
2026-05-08 05:58 4.93053 -74.54860 17317 ft 409 kts 298°
2026-05-08 05:58 4.94401 -74.57387 17823 ft 413 kts 298°
2026-05-08 05:58 4.95751 -74.59914 18363 ft 415 kts 298°
2026-05-08 05:58 4.97126 -74.62489 18904 ft 418 kts 298°
2026-05-08 05:59 4.98490 -74.65044 19429 ft 420 kts 298°
2026-05-08 05:59 4.99869 -74.67638 19960 ft 423 kts 298°
2026-05-08 05:59 5.01266 -74.70269 20449 ft 426 kts 298°
2026-05-08 05:59 5.02664 -74.72902 20917 ft 430 kts 298°
2026-05-08 06:00 5.04075 -74.75552 21433 ft 432 kts 298°
2026-05-08 06:00 5.05489 -74.78207 21917 ft 434 kts 298°
2026-05-08 06:00 5.06903 -74.80861 22381 ft 437 kts 298°
2026-05-08 06:00 5.08347 -74.83567 22844 ft 440 kts 298°
2026-05-08 06:01 5.09802 -74.86293 23195 ft 445 kts 298°
2026-05-08 06:01 5.11279 -74.89050 23417 ft 454 kts 298°
2026-05-08 06:01 5.12794 -74.91859 23801 ft 457 kts 298°
2026-05-08 06:01 5.14306 -74.94669 24261 ft 459 kts 298°
2026-05-08 06:02 5.15824 -74.97498 24704 ft 461 kts 298°
2026-05-08 06:02 5.17341 -75.00333 25123 ft 464 kts 298°
2026-05-08 06:02 5.18853 -75.03165 25527 ft 467 kts 298°
2026-05-08 06:02 5.20403 -75.06068 25949 ft 469 kts 298°
2026-05-08 06:03 5.21931 -75.08932 26361 ft 471 kts 298°
2026-05-08 06:03 5.23489 -75.11854 26777 ft 474 kts 297°
2026-05-08 06:03 5.25030 -75.14744 27199 ft 475 kts 297°
2026-05-08 06:03 5.26595 -75.17682 27611 ft 477 kts 297°
2026-05-08 06:04 5.28170 -75.20641 28069 ft 478 kts 297°
2026-05-08 06:04 5.29732 -75.23573 28655 ft 476 kts 297°
2026-05-08 06:04 5.31276 -75.26472 29255 ft 474 kts 297°
2026-05-08 06:04 5.32840 -75.29408 29830 ft 472 kts 297°
2026-05-08 06:05 5.34368 -75.32278 30383 ft 471 kts 297°
2026-05-08 06:05 5.35918 -75.35189 30928 ft 470 kts 297°
2026-05-08 06:05 5.37434 -75.38039 31459 ft 468 kts 297°
2026-05-08 06:05 5.38982 -75.40950 31995 ft 467 kts 297°
2026-05-08 06:06 5.40495 -75.43794 32514 ft 466 kts 297°
2026-05-08 06:06 5.42021 -75.46663 33034 ft 466 kts 297°
2026-05-08 06:06 5.43550 -75.49540 33503 ft 466 kts 297°
2026-05-08 06:06 5.45090 -75.52438 33943 ft 468 kts 297°
2026-05-08 06:07 5.46612 -75.55301 34234 ft 469 kts 297°
2026-05-08 06:07 5.49703 -75.61117 34495 ft 477 kts 297°
2026-05-08 06:07 5.51264 -75.64055 35017 ft 475 kts 297°
2026-05-08 06:08 5.52822 -75.66993 35636 ft 471 kts 297°
2026-05-08 06:08 5.54351 -75.69886 36158 ft 469 kts 297°
2026-05-08 06:08 5.55882 -75.72782 36300 ft 468 kts 297°
2026-05-08 06:09 5.58928 -75.78529 36324 ft 468 kts 297°
2026-05-08 06:09 5.61980 -75.84280 36328 ft 468 kts 297°
2026-05-08 06:10 5.65043 -75.90052 36322 ft 468 kts 297°
2026-05-08 06:10 5.68099 -75.95808 36298 ft 467 kts 297°
2026-05-08 06:11 5.71152 -76.01565 36266 ft 467 kts 297°
2026-05-08 06:11 5.74197 -76.07307 36240 ft 467 kts 297°
2026-05-08 06:12 5.77241 -76.13048 36217 ft 467 kts 297°
2026-05-08 06:12 5.80300 -76.18817 36215 ft 467 kts 297°
2026-05-08 06:13 5.83347 -76.24567 36223 ft 467 kts 297°
2026-05-08 06:13 5.86399 -76.30327 36215 ft 467 kts 297°
2026-05-08 06:14 5.89445 -76.36081 36198 ft 467 kts 297°
2026-05-08 06:14 5.92494 -76.41840 36162 ft 467 kts 297°
2026-05-08 06:15 5.95528 -76.47572 36100 ft 467 kts 297°
2026-05-08 06:15 5.98573 -76.53326 36028 ft 466 kts 297°
2026-05-08 06:16 6.01631 -76.59106 35982 ft 466 kts 297°
2026-05-08 06:16 6.04660 -76.64832 35960 ft 466 kts 297°
2026-05-08 06:17 6.09210 -76.73480 35934 ft 467 kts 297°
2026-05-08 06:17 6.12261 -76.79237 35917 ft 467 kts 297°
2026-05-08 06:18 6.15333 -76.85009 35918 ft 466 kts 297°
2026-05-08 06:18 6.18366 -76.90733 35914 ft 466 kts 297°
2026-05-08 06:19 6.21402 -76.96474 35910 ft 466 kts 297°
2026-05-08 06:19 6.24439 -77.02226 35905 ft 467 kts 297°
2026-05-08 06:20 6.27488 -77.08004 35902 ft 467 kts 297°
2026-05-08 06:20 6.30532 -77.13777 35906 ft 468 kts 297°
2026-05-08 06:21 6.33569 -77.19539 35917 ft 467 kts 297°
2026-05-08 06:21 6.36606 -77.25301 35927 ft 467 kts 297°
2026-05-08 06:22 6.39647 -77.31076 35918 ft 468 kts 297°
2026-05-08 06:22 6.42680 -77.36832 35898 ft 468 kts 297°
2026-05-08 06:23 6.45729 -77.42624 35882 ft 468 kts 297°
2026-05-08 06:23 6.48763 -77.48388 35873 ft 468 kts 297°
2026-05-08 06:24 6.51825 -77.54208 35858 ft 468 kts 297°
2026-05-08 06:24 6.54843 -77.59948 35853 ft 468 kts 297°
2026-05-08 06:25 6.57887 -77.65739 35855 ft 468 kts 297°
2026-05-08 06:25 6.60915 -77.71527 35848 ft 468 kts 297°
2026-05-08 06:26 6.63954 -77.77330 35844 ft 468 kts 297°
2026-05-08 06:26 6.66988 -77.83113 35847 ft 469 kts 297°
2026-05-08 06:27 6.70036 -77.88921 35843 ft 470 kts 297°
2026-05-08 06:27 6.73086 -77.94731 35843 ft 470 kts 297°
2026-05-08 06:28 6.76131 -78.00535 35844 ft 470 kts 297°
2026-05-08 06:28 6.79188 -78.06363 35844 ft 469 kts 297°
2026-05-08 06:29 6.82231 -78.12167 35845 ft 469 kts 297°
2026-05-08 06:29 6.85273 -78.17970 35843 ft 468 kts 297°
2026-05-08 06:30 6.88303 -78.23754 35844 ft 469 kts 297°
2026-05-08 06:30 6.91348 -78.29569 35844 ft 469 kts 297°
2026-05-08 06:31 6.94382 -78.35364 35843 ft 469 kts 297°
2026-05-08 06:31 6.97420 -78.41169 35842 ft 469 kts 297°
2026-05-08 06:32 7.00459 -78.46977 35846 ft 469 kts 297°
2026-05-08 06:32 7.03517 -78.52824 35846 ft 468 kts 297°
2026-05-08 06:33 7.06552 -78.58630 35843 ft 468 kts 297°
2026-05-08 06:33 7.09598 -78.64462 35845 ft 468 kts 297°
2026-05-08 06:34 7.12688 -78.70248 35846 ft 469 kts 300°
2026-05-08 06:34 7.15997 -78.75877 35848 ft 468 kts 300°
2026-05-08 06:35 7.19333 -78.81533 35846 ft 468 kts 300°
2026-05-08 06:35 7.22653 -78.87177 35849 ft 468 kts 300°
2026-05-08 06:36 7.25974 -78.92829 35850 ft 468 kts 300°
2026-05-08 06:36 7.29325 -78.98539 35845 ft 468 kts 300°
2026-05-08 06:37 7.32651 -79.04208 35839 ft 468 kts 300°
2026-05-08 06:37 7.35937 -79.09813 35840 ft 467 kts 301°
2026-05-08 06:38 7.39241 -79.15447 35843 ft 468 kts 301°
2026-05-08 06:38 7.42563 -79.21117 35843 ft 468 kts 301°
2026-05-08 06:39 7.45861 -79.26746 35844 ft 468 kts 301°
2026-05-08 06:39 7.49168 -79.32393 35843 ft 468 kts 301°
2026-05-08 06:40 7.52496 -79.38078 35845 ft 467 kts 301°
2026-05-08 06:40 7.55803 -79.43730 35844 ft 469 kts 301°
2026-05-08 06:41 7.59105 -79.49371 35845 ft 470 kts 301°
2026-05-08 06:41 7.62435 -79.55067 35843 ft 470 kts 301°
2026-05-08 06:42 7.65771 -79.60774 35844 ft 471 kts 301°
2026-05-08 06:42 7.69107 -79.66486 35843 ft 471 kts 301°
2026-05-08 06:43 7.72409 -79.72170 35844 ft 471 kts 301°
2026-05-08 06:43 7.75730 -79.77879 35844 ft 471 kts 301°
2026-05-08 06:44 7.79039 -79.83555 35845 ft 471 kts 301°
2026-05-08 06:44 7.82362 -79.89251 35844 ft 471 kts 301°
2026-05-08 06:45 7.85696 -79.94968 35844 ft 471 kts 301°
2026-05-08 06:45 7.89045 -80.00715 35845 ft 471 kts 301°
2026-05-08 06:46 7.92360 -80.06407 35846 ft 471 kts 301°
2026-05-08 06:46 7.95687 -80.12115 35844 ft 471 kts 301°
2026-05-08 06:47 7.99005 -80.17815 35847 ft 471 kts 301°
2026-05-08 06:47 8.02321 -80.23509 35849 ft 471 kts 301°
2026-05-08 06:48 8.05638 -80.29210 35852 ft 471 kts 301°
2026-05-08 06:48 8.08948 -80.34901 35853 ft 471 kts 301°
2026-05-08 06:49 8.12284 -80.40614 35854 ft 471 kts 301°
2026-05-08 06:49 8.15618 -80.46306 35860 ft 471 kts 301°
2026-05-08 06:50 8.18944 -80.52010 35858 ft 471 kts 301°
2026-05-08 06:50 8.22253 -80.57702 35861 ft 471 kts 301°
2026-05-08 06:51 8.25576 -80.63422 35866 ft 471 kts 301°
2026-05-08 06:51 8.28888 -80.69149 35873 ft 471 kts 301°
2026-05-08 06:52 8.32188 -80.74869 35882 ft 471 kts 301°
2026-05-08 06:52 8.35487 -80.80572 35897 ft 471 kts 301°
2026-05-08 06:53 8.38794 -80.86285 35914 ft 471 kts 301°
2026-05-08 06:53 8.42094 -80.91984 35935 ft 471 kts 301°
2026-05-08 06:54 8.45413 -80.97715 35956 ft 471 kts 301°
2026-05-08 06:54 8.48705 -81.03407 35982 ft 471 kts 301°
2026-05-08 06:55 8.52035 -81.09163 35996 ft 471 kts 301°
2026-05-08 06:55 8.55335 -81.14870 35991 ft 471 kts 301°
2026-05-08 06:56 8.58644 -81.20599 35980 ft 471 kts 301°
2026-05-08 06:56 8.62290 -81.26906 35957 ft 471 kts 301°
2026-05-08 06:57 8.68747 -81.38092 35922 ft 472 kts 301°
2026-05-08 06:57 8.75046 -81.49010 35895 ft 472 kts 301°
2026-05-08 06:58 8.81376 -81.59992 35886 ft 472 kts 301°
2026-05-08 06:58 8.87732 -81.71059 35882 ft 472 kts 301°
2026-05-08 06:59 8.94111 -81.82177 35888 ft 471 kts 302°
2026-05-08 06:59 9.00650 -81.93549 35888 ft 471 kts 301°
2026-05-08 07:00 9.08156 -82.06620 35886 ft 471 kts 302°
2026-05-08 07:00 9.14654 -82.17882 35894 ft 471 kts 302°
2026-05-08 07:01 9.21118 -82.29128 35905 ft 471 kts 302°
2026-05-08 07:01 9.27554 -82.40366 35927 ft 471 kts 302°
2026-05-08 07:02 9.33915 -82.51490 35939 ft 471 kts 302°
2026-05-08 07:02 9.40406 -82.62845 34816 ft 475 kts 301°
2026-05-08 07:03 9.43671 -82.68576 33406 ft 478 kts 301°
2026-05-08 07:03 9.46988 -82.74423 32027 ft 481 kts 300°
2026-05-08 07:03 9.50289 -82.80236 30667 ft 485 kts 300°
2026-05-08 07:03 9.53275 -82.86335 29256 ft 490 kts 294°
2026-05-08 07:04 9.55633 -82.92854 27848 ft 495 kts 288°
2026-05-08 07:04 9.57360 -82.99416 26761 ft 491 kts 285°
2026-05-08 07:04 9.58974 -83.05870 25823 ft 484 kts 285°
2026-05-08 07:04 9.60674 -83.12334 24931 ft 476 kts 288°
2026-05-08 07:05 9.62749 -83.18443 24156 ft 466 kts 291°
2026-05-08 07:05 9.64951 -83.24589 23388 ft 457 kts 291°
2026-05-08 07:05 9.67049 -83.30469 22624 ft 451 kts 292°
2026-05-08 07:05 9.69092 -83.36219 21832 ft 446 kts 291°
2026-05-08 07:06 9.71035 -83.41699 21067 ft 442 kts 291°
2026-05-08 07:06 9.73092 -83.47501 20242 ft 437 kts 291°
2026-05-08 07:06 9.74700 -83.53323 19427 ft 434 kts 279°
2026-05-08 07:06 9.74768 -83.59326 18681 ft 429 kts 266°
2026-05-08 07:07 9.74272 -83.65194 17942 ft 423 kts 265°
2026-05-08 07:07 9.73839 -83.70923 17665 ft 401 kts 266°
2026-05-08 07:07 9.73458 -83.76254 17640 ft 372 kts 266°
2026-05-08 07:07 9.73104 -83.81197 17598 ft 346 kts 265°
2026-05-08 07:08 9.72768 -83.85816 17466 ft 334 kts 265°
2026-05-08 07:08 9.72426 -83.90265 16860 ft 332 kts 265°
2026-05-08 07:08 9.72078 -83.94763 16277 ft 330 kts 265°
2026-05-08 07:08 9.71727 -83.99316 15677 ft 328 kts 265°
2026-05-08 07:09 9.71377 -84.03827 15048 ft 326 kts 265°
2026-05-08 07:09 9.71048 -84.08070 14427 ft 325 kts 265°
2026-05-08 07:09 9.70726 -84.12232 13859 ft 322 kts 266°
2026-05-08 07:09 9.70379 -84.16684 13235 ft 320 kts 266°
2026-05-08 07:10 9.70034 -84.21164 12622 ft 316 kts 267°
2026-05-08 07:10 9.70786 -84.25362 12033 ft 309 kts 295°
2026-05-08 07:10 9.72570 -84.29301 11453 ft 305 kts 297°
2026-05-08 07:10 9.74307 -84.33134 10887 ft 301 kts 296°
2026-05-08 07:11 9.76010 -84.36991 10321 ft 297 kts 296°
2026-05-08 07:11 9.77637 -84.40705 10056 ft 278 kts 296°
2026-05-08 07:11 9.79280 -84.44199 9951 ft 273 kts 312°
2026-05-08 07:11 9.82507 -84.45707 9671 ft 264 kts 351°
2026-05-08 07:12 9.84348 -84.46069 9208 ft 270 kts 351°
2026-05-08 07:12 9.86213 -84.46478 8757 ft 275 kts 349°
2026-05-08 07:12 9.88109 -84.46887 8269 ft 279 kts 358°
2026-05-08 07:12 9.89985 -84.46516 7763 ft 279 kts 33°
2026-05-08 07:13 9.91296 -84.45119 7418 ft 274 kts 66°
2026-05-08 07:13 9.91691 -84.43240 7083 ft 273 kts 85°
2026-05-08 07:13 9.91895 -84.41335 6721 ft 269 kts 79°
2026-05-08 07:13 9.92371 -84.39552 6305 ft 257 kts 71°
2026-05-08 07:14 9.92983 -84.37912 5991 ft 244 kts 68°
2026-05-08 07:14 9.93595 -84.36356 5684 ft 232 kts 68°
2026-05-08 07:14 9.94168 -84.34864 5401 ft 222 kts 69°
2026-05-08 07:14 9.94706 -84.33431 5125 ft 212 kts 70°
2026-05-08 07:15 9.95220 -84.32049 4858 ft 203 kts 70°
2026-05-08 07:15 9.95709 -84.30734 4600 ft 194 kts 69°
2026-05-08 07:15 9.96169 -84.29501 4362 ft 179 kts 69°
2026-05-08 07:15 9.96597 -84.28353 4142 ft 168 kts 69°
2026-05-08 07:16 9.97009 -84.27257 3938 ft 165 kts 71°
2026-05-08 07:16 9.97418 -84.26180 3716 ft 165 kts 69°
2026-05-08 07:16 9.97832 -84.25083 3523 ft 164 kts 71°
2026-05-08 07:16 9.98196 -84.23995 3336 ft 164 kts 71°
2026-05-08 07:17 9.98620 -84.22920 3184 ft 164 kts 70°
2026-05-08 07:17 9.99034 -84.21832 2995 ft 160 kts 69°
2026-05-08 07:17 9.99399 -84.20844 3008 ft 127 kts 71°
2026-05-08 07:17 9.99632 -84.20216 3042 ft 62 kts 68°
2026-05-08 07:18 9.99727 -84.19974 3052 ft 24 kts 68°
2026-05-08 07:18 9.99776 -84.19847 3057 ft 16 kts 69°
2026-05-08 07:18 9.99815 -84.19746 3060 ft 15 kts 69°
2026-05-08 07:18 9.99835 -84.19650 3063 ft 13 kts 113°
2026-05-08 07:19 9.99754 -84.19593 3062 ft 14 kts 168°
2026-05-08 07:19 9.99676 -84.19657 3059 ft 17 kts 246°
2026-05-08 07:19 9.99631 -84.19772 3055 ft 17 kts 249°
2026-05-08 07:19 9.99596 -84.19897 3050 ft 15 kts 281°
2026-05-08 07:20 9.99679 -84.19969 3050 ft 16 kts 337°
2026-05-08 07:20 9.99768 -84.20007 3052 ft 10 kts 337°
2026-05-08 07:20 9.99816 -84.20046 3053 ft 8 kts 309°
2026-05-08 07:20 9.99848 -84.20093 3053 ft 4 kts 303°
2026-05-08 07:21 9.99852 -84.20099 3053 ft 0 kts 303°